Dalhart, TX

1:55 AM CDT on March 30, 2017 (GMT -0500)
Dalhart Municipal

Weather History for KDHT - February, 2014

Change the Weather History Date:

Tuesday, February 25, 2014

  Actual Average Record
Temperature  
Mean Temperature 31 °F 40 °F  
Max Temperature 45 °F 55 °F 82 °F (1986)
Min Temperature 17 °F 25 °F 4 °F (1960)
Degree Days  
Heating Degree Days 34 25  
Month to date heating degree days 685 687  
Since 1 July heating degree days 3532 3569  
Cooling Degree Days 0 0  
Month to date cooling degree days 0 0  
Year to date cooling degree days 0 0  
Moisture  
Dew Point 19 °F    
Average Humidity 63    
Maximum Humidity 81    
Minimum Humidity 45    
Precipitation  
Precipitation T in 0.01 in 0.45 in (1949)
Month to date precipitation 0.08 0.35  
Year to date precipitation 0.09 0.87  
Snow  
Snow T in 0.10 in 1.00 in (2013)
Month to date snowfall 2.8 2.8  
Since 1 July snowfall 15.3 13.3  
Snow Depth 0.00 in    
Sea Level Pressure  
Sea Level Pressure 30.18 in    
Wind  
Wind Speed 18 mph (NE)    
Max Wind Speed 38 mph    
Max Gust Speed 46 mph    
Visibility 8 miles    
Events Snow    
T = Trace of Precipitation, MM = Missing Value Source: NWS Daily Summary

Daily Weather History Graph

Daily Weather History Graph

Search for Another Location

Airport or City:

Trip Planner

Search our weather history database for the weather conditions in past years. The results will help you decide how hot, cold, wet, or windy it might be!

Date:

Astronomy

Feb. 25, 2014 Rise Set
Actual Time 7:25 AM CST 6:41 PM CST
Civil Twilight 6:59 AM CST 7:07 PM CST
Nautical Twilight 6:29 AM CST 7:37 PM CST
Astronomical Twilight 6:00 AM CST 8:06 PM CST
Moon 4:17 AM CST (2/25) 2:54 PM CST (2/25)
Length of Visible Light 12h 07m
Length of Day
11h 16m
Waning Crescent, 18% of the Moon is Illuminated
Feb 25
Waning Crescent
Mar 1
New
Mar 8
First Quarter
Mar 16
Full
Mar 23
Last Quarter

Hourly Weather History & Observations

Time (CST) Temp. Windchill Dew Point Humidity Pressure Visibility Wind Dir Wind Speed Gust Speed Precip Events Conditions
12:17 AM 32.0 °F 16.7 °F 21.0 °F 64% 30.12 in 3.0 mi NNE 34.5 mph 40.3 mph N/A   Haze
12:53 AM 28.9 °F 12.5 °F 19.9 °F 69% 30.13 in 5.0 mi NNE 34.5 mph 46.0 mph N/A   Haze
1:53 AM 26.1 °F 9.8 °F 19.0 °F 75% 30.14 in 9.0 mi North 28.8 mph 38.0 mph N/A   Clear
2:53 AM 25.0 °F 8.1 °F 18.0 °F 75% 30.15 in 8.0 mi NNE 29.9 mph 35.7 mph N/A   Scattered Clouds
3:15 AM 25.0 °F 9.2 °F 18.0 °F 75% 30.18 in 8.0 mi NNE 25.3 mph 33.4 mph N/A   Mostly Cloudy
3:53 AM 25.0 °F 9.5 °F 19.0 °F 78% 30.14 in 9.0 mi NNE 24.2 mph - N/A   Overcast
4:24 AM 25.0 °F 12.2 °F 19.0 °F 78% 30.20 in 9.0 mi NNE 16.1 mph - N/A   Overcast
4:53 AM 25.0 °F 11.3 °F 19.0 °F 78% 30.16 in 9.0 mi NNE 18.4 mph - N/A   Overcast
5:18 AM 24.1 °F 10.6 °F 19.0 °F 81% 30.19 in 8.0 mi NE 17.3 mph - N/A   Overcast
5:53 AM 24.1 °F 13.1 °F 18.0 °F 77% 30.17 in 9.0 mi NE 11.5 mph - N/A   Overcast
6:53 AM 24.1 °F 12.5 °F 18.0 °F 77% 30.20 in 9.0 mi NNE 12.7 mph - N/A   Overcast
7:50 AM 24.8 °F 15.3 °F 17.6 °F 74% 30.19 in 8.0 mi NE 9.2 mph - N/A   Overcast
7:53 AM 24.1 °F 13.7 °F 17.1 °F 75% 30.20 in 9.0 mi ENE 10.4 mph - N/A   Overcast
8:53 AM 24.1 °F 17.0 °F 18.0 °F 77% 30.21 in 7.0 mi ENE 5.8 mph - N/A   Overcast
9:53 AM 25.0 °F - 19.0 °F 78% 30.22 in 6.0 mi Calm Calm - N/A   Haze
10:53 AM 26.1 °F 21.9 °F 19.9 °F 78% 30.21 in 5.0 mi Variable 3.5 mph - N/A   Haze
11:53 AM 28.0 °F 20.8 °F 21.0 °F 75% 30.18 in 6.0 mi SSW 6.9 mph - N/A   Haze
12:53 PM 32.0 °F 23.0 °F 23.0 °F 69% 30.15 in 7.0 mi South 11.5 mph - N/A   Overcast
1:24 PM 35.1 °F 25.9 °F 24.1 °F 64% 30.08 in 7.0 mi South 13.8 mph - N/A   Overcast
1:53 PM 35.1 °F 26.9 °F 24.1 °F 64% 30.08 in 8.0 mi South 11.5 mph - N/A   Overcast
2:29 PM 39.9 °F 31.4 °F 25.0 °F 55% 30.01 in 9.0 mi South 16.1 mph 23.0 mph N/A   Scattered Clouds
2:53 PM 41.0 °F 32.8 °F 25.0 °F 53% 30.03 in 9.0 mi South 16.1 mph 24.2 mph N/A   Clear
3:53 PM 43.0 °F 36.8 °F 24.1 °F 47% 30.01 in 10.0 mi South 11.5 mph 23.0 mph N/A   Clear
4:53 PM 44.1 °F 37.7 °F 25.0 °F 47% 29.99 in 9.0 mi SE 12.7 mph - N/A   Clear
5:53 PM 39.0 °F 30.3 °F 24.1 °F 55% 30.04 in 8.0 mi East 16.1 mph - N/A   Clear
6:53 PM 33.1 °F 20.9 °F 21.9 °F 64% 30.12 in 7.0 mi East 21.9 mph - N/A   Clear
7:53 PM 30.0 °F 15.4 °F 17.1 °F 59% 30.22 in 10.0 mi NE 27.6 mph 32.2 mph N/A   Overcast
8:10 PM 28.9 °F 14.5 °F 15.1 °F 56% 30.18 in 10.0 mi NE 25.3 mph 34.5 mph N/A   Overcast
8:53 PM 27.0 °F 12.2 °F 15.1 °F 61% 30.30 in 10.0 mi NE 24.2 mph - N/A   Overcast
9:53 PM 21.0 °F 2.4 °F 10.0 °F 63% 30.39 in 10.0 mi NNE 31.1 mph 39.1 mph N/A   Overcast
10:53 PM 19.0 °F 0.3 °F 10.0 °F 68% 30.43 in 8.0 mi NNE 28.8 mph 35.7 mph N/A   Overcast
11:35 PM 18.0 °F 0.2 °F 12.9 °F 81% 30.34 in 3.0 mi NNE 24.2 mph 33.4 mph 0.00 in Snow Light Snow
11:42 PM 18.0 °F 0.2 °F 12.9 °F 81% 30.34 in 2.5 mi NNE 24.2 mph 29.9 mph 0.00 in Snow Light Snow
11:53 PM 17.1 °F -0.6 °F 12.9 °F 84% 30.44 in 3.0 mi NNE 23.0 mph 31.1 mph 0.00 in Snow Light Snow